Flag for Spain Weather past 2 weeks in Granada, Spain

Now
35 °F

Chilly.


Feels Like: 35 °F
Forecast: 28 / 63 °F
Wind: 2 mph from Southwest

Location: Granada / Aeropuerto

Current Time: Jan 27, 2015 at 4:57:53 AM

Latest Report: Jan 27, 2015 at 3:00 AM


Visibility: 17 mi

Pressure: 30.43 "Hg

Humidity: 83%

Dew point: 30 °F

Location of GranadaLocation

Historic Weather in Granada — Graph

°F

Granada temperature yesterday

Maximum temperature yesterday: 62 °F (at 4:00 PM)
Minimum temperature yesterday: 24 °F (at 8:00 AM)
Average temperature yesterday: 41 °F

Past Weeks' High & Low Weather Summary

 TemperatureHumidityPressure
High65 °F (Jan 13, 4:00 PM)100% (Jan 21, 1:00 AM)30.59 "Hg (Jan 21, 1:00 AM)
Low24 °F (Jan 24, 7:00 AM)23% (Jan 25, 4:00 PM)29.65 "Hg (Jan 19, 6:00 AM)
Average41 °F75%30.19 "Hg
* Reported Jan 12 3:00 AM — Jan 27 3:00 AM, Granada, Weather by CustomWeather, © 2014

Note: Actual official high and low records may vary slightly from our data, if they occured in-between our weather recording intervals... More about our weather records

Advertising

Granada weather history for previous 24 hours

 ConditionsComfort  
Time TempWeatherWind HumidityBarometerVisibility
3:00 AM
Jan 27
35 °FChilly.2 mph83%30.43 "Hg17 mi
2:00 AM34 °FChilly.No wind85%30.44 "Hg19 mi
1:00 AM35 °FChilly.No wind79%30.45 "Hg19 mi
12:00 AM36 °FChilly.2 mph75%30.45 "Hg19 mi
11:00 PM
Jan 26
41 °FQuite cool.No wind62%30.42 "Hg19 mi
9:00 PM44 °FQuite cool.5 mph54%30.38 "Hg19 mi
8:00 PM46 °FCool.3 mph52%30.35 "Hg19 mi
7:00 PM50 °FPassing clouds.2 mph47%30.31 "Hg19 mi
6:00 PM58 °FRefreshingly cool.6 mph33%30.27 "Hg19 mi
5:00 PM62 °FRefreshingly cool.6 mph29%30.23 "Hg19 mi
4:00 PM62 °FSunny.5 mph30%30.23 "Hg19 mi
3:00 PM61 °FRefreshingly cool.3 mph31%30.25 "Hg19 mi
2:00 PM57 °FSunny.3 mph33%30.29 "Hg19 mi
1:00 PM54 °FSunny.2 mph36%30.33 "Hg19 mi
12:00 PM46 °FCool.No wind49%30.37 "Hg18 mi
11:00 AM41 °FQuite cool.No wind61%30.40 "Hg19 mi
10:00 AM36 °FSunny.No wind71%30.42 "Hg19 mi
9:00 AM27 °FChilly.2 mph92%30.44 "Hg16 mi
8:00 AM24 °FClear.No wind92%30.44 "Hg19 mi
7:00 AM25 °FClear.1 mph91%30.42 "Hg19 mi
6:00 AM26 °FChilly.2 mph90%30.41 "Hg19 mi
5:00 AM28 °FChilly.2 mph90%30.41 "Hg19 mi
4:00 AM27 °FChilly.1 mph89%30.42 "Hg19 mi
Weather by CustomWeather, © 2014

See weather overviewHow to use our weather pages